Temperature
24 23 22 21 20 21 24 28 30 30 29 29 29 28 27 26 25 23 23 23 24 23 22 22 22 22 22 22 22 22 22 21 21 21 21 21 21 21 20 20 20 20 20 20 20 20 20 20 20
25 24 22 21 22 24 26 29 29 30 29 29 29 28 27 25 23 23 23 23 24 24 23 22 22 22 22 21 21 21 21 21 21 21 21 21 21 21 21 21 21 21 21 21 21 21 21 21 21
25 24 23 21 23 24 27 29 29 30 30 30 29 28 27 25 23 23 24 24 24 24 23 22 22 22 22 21 21 21 21 21 21 21 21 21 21 21 21 21 21 21 21 21 21 21 21 21 21
26 24 24 22 25 26 28 28 29 29 29 29 29 27 27 25 25 25 24 24 24 24 23 22 22 22 22 21 21 21 21 21 21 21 21 21 21 21 21 20 20 20 20 20 20 20 20 20 20
26 25 23 23 25 28 28 29 29 29 29 29 28 26 26 26 26 25 24 24 25 24 23 23 22 22 22 21 21 21 21 21 21 21 21 21 21 20 20 20 20 20 20 20 20 20 20 20 20
26 24 23 24 26 29 28 29 29 28 28 28 27 26 25 26 26 25 25 25 25 25 24 23 22 22 22 21 21 21 21 21 21 21 21 20 20 20 20 20 20 20 20 20 20 20 20 20 20
27 23 24 25 26 28 29 29 29 28 27 27 27 25 24 24 26 26 25 25 25 25 24 23 23 22 22 22 21 21 21 21 21 21 21 21 20 20 20 20 20 20 20 20 20 20 20 20 20
29 23 25 25 27 28 29 29 29 28 27 28 27 25 25 25 25 25 25 25 25 25 25 24 23 23 22 22 21 21 21 21 21 21 21 20 20 20 20 20 19 19 19 19 19 19 20 20 20
29 24 23 25 27 28 29 29 29 29 28 27 27 27 27 26 25 25 24 24 25 25 24 24 24 23 23 22 22 21 21 21 21 21 21 20 20 20 20 19 19 19 19 19 19 19 19 19 19
27 23 25 27 28 29 30 29 29 28 27 26 27 28 27 26 26 25 24 24 24 24 24 24 24 23 23 22 22 21 21 21 21 21 20 20 20 20 20 19 19 19 19 19 19 19 18 19 19
27 25 27 29 30 31 30 30 30 28 25 26 27 27 27 27 26 26 25 25 25 24 24 24 24 23 23 22 22 21 21 21 20 20 20 20 19 19 19 19 19 18 18 18 18 18 18 18 18
27 27 29 30 31 31 31 31 29 29 29 29 29 29 28 27 27 26 25 24 24 23 23 23 22 22 22 22 21 21 21 21 20 20 20 19 19 19 19 19 18 18 18 18 18 18 18 18 18
27 27 29 30 31 31 31 30 30 29 30 29 29 29 28 28 27 26 25 24 23 23 22 22 22 21 21 21 20 20 20 20 20 20 20 19 19 19 19 18 18 18 18 18 18 18 18 18 18
27 27 28 29 30 31 29 29 29 29 29 27 27 28 28 27 26 25 25 24 23 22 21 21 20 20 20 19 19 19 20 20 20 19 19 19 19 19 18 18 18 18 18 18 18 17 17 17 17
28 25 25 27 28 30 29 28 28 29 28 26 26 26 26 25 24 24 24 23 22 21 21 20 19 19 19 18 18 19 19 19 19 19 19 19 19 19 19 19 18 18 18 18 17 17 17 17 17
25 25 24 26 26 28 28 26 28 29 26 25 24 24 23 23 23 23 23 22 22 21 20 19 18 18 19 18 18 18 19 19 19 19 19 19 19 19 19 19 18 18 18 17 17 17 17 17 17
23 23 24 26 27 27 27 26 27 28 26 24 23 22 22 21 21 21 22 22 21 21 20 19 19 18 18 18 18 18 18 19 19 19 19 19 19 19 19 19 19 18 18 17 17 17 17 17 17
23 24 25 25 27 27 26 26 26 26 25 23 21 21 20 20 20 20 20 20 20 20 20 20 19 18 17 18 18 18 18 18 18 19 19 19 19 19 19 19 19 18 18 18 17 17 17 17 17
25 26 26 27 28 27 26 25 24 24 22 21 20 19 18 17 18 19 19 19 19 20 19 19 18 18 17 17 17 17 18 18 18 19 19 19 19 20 19 19 19 19 18 18 18 17 17 17 17
27 26 26 26 27 27 24 23 22 21 20 19 18 17 16 16 17 17 18 18 19 19 18 19 18 17 17 17 17 17 18 18 19 19 19 19 19 19 19 19 19 19 19 18 18 17 17 17 16
27 26 26 26 26 24 24 21 20 20 19 18 17 16 16 16 16 16 17 17 18 18 18 18 17 17 17 17 17 17 18 18 18 19 18 19 19 19 19 19 19 19 19 18 18 18 17 17 16
26 27 27 26 24 21 22 21 20 18 18 17 16 16 15 15 16 16 16 17 17 17 17 17 17 17 17 17 17 17 18 18 18 18 18 18 18 18 18 18 18 18 18 18 18 18 17 17 17
27 27 26 25 23 21 20 20 19 18 17 16 16 15 15 15 16 16 16 16 16 16 16 16 16 16 16 16 17 17 17 17 17 17 17 17 17 17 17 17 17 17 17 17 17 17 17 17 16
27 25 23 20 19 20 20 19 18 16 16 16 16 15 16 16 16 16 16 16 16 16 16 16 16 16 16 16 16 16 16 16 16 16 17 16 16 16 16 16 16 17 17 17 17 17 17 16 16
25 21 20 20 18 19 18 18 17 16 17 17 16 16 16 16 16 16 16 16 16 16 16 16 16 15 15 15 15 15 15 15 15 15 15 15 15 15 16 16 16 16 16 16 16 16 16 16 16
24 22 20 20 19 18 18 18 17 17 16 16 16 16 16 16 16 16 16 16 16 16 15 15 15 15 15 15 14 14 14 14 14 14 14 14 14 14 14 14 14 15 15 15 15 15 15 15 15
24 22 21 19 20 19 17 17 17 16 16 16 16 16 16 16 16 16 16 16 16 16 15 15 15 14 14 14 14 13 13 13 13 13 13 12 13 13 13 13 13 13 14 14 14 14 15 15 15
23 22 18 19 19 19 19 18 16 16 16 16 16 16 16 16 16 16 16 16 16 16 15 14 14 14 14 13 13 13 12 12 12 12 12 12 12 12 12 12 12 13 13 13 13 13 14 14 14
22 21 19 17 17 18 18 18 18 16 16 15 15 16 17 17 17 17 17 16 16 15 15 14 14 14 13 13 13 13 12 12 12 11 11 11 11 11 11 11 11 11 12 12 12 13 13 13 13
22 21 19 18 18 17 17 17 18 16 16 16 16 17 17 17 17 16 16 16 15 15 14 14 14 13 13 13 12 12 12 12 11 11 11 11 11 10 10 10 10 11 11 11 11 12 12 12 13
Wind_Speed
8 9 5 3 1 1 5 3 3 5 6 7 10 10 9 5 4 5 6 18 20 19 18 22 23 22 22 21 20 19 19 18 18 17 17 16 16 16 16 16 16 15 15 14 13 12 12 12 12
6 6 3 1 2 2 5 2 5 5 8 10 10 8 7 6 7 10 8 17 22 19 18 21 24 23 22 21 20 20 19 18 18 17 17 16 16 15 15 15 15 14 14 13 13 12 11 11 11
5 5 4 2 0 2 5 5 2 3 5 6 6 5 5 7 9 7 10 19 18 15 16 21 25 24 23 22 21 20 19 18 18 17 16 16 15 15 15 14 14 13 13 12 12 11 11 10 10
4 3 2 2 3 4 2 6 4 4 6 6 8 6 5 7 8 11 18 19 18 14 15 21 24 23 23 22 21 20 19 18 18 17 16 16 15 14 14 13 13 12 12 12 11 11 11 10 10
3 3 2 2 5 4 1 4 6 2 3 3 7 7 4 4 18 21 20 19 18 13 13 20 24 23 22 21 21 20 19 18 17 17 16 15 14 14 13 13 12 12 12 12 11 11 11 11 10
2 4 2 3 6 4 3 2 2 4 6 4 6 7 4 11 19 20 19 18 17 17 13 17 23 23 22 21 21 20 19 18 18 17 16 16 15 14 14 13 13 13 13 12 12 12 12 13 12
4 2 4 5 5 5 4 3 2 2 3 3 5 6 5 10 16 19 18 17 16 16 14 12 18 21 22 21 21 20 19 19 18 18 17 17 16 15 15 15 14 14 14 14 15 15 15 15 15
6 3 3 3 4 5 4 5 5 3 1 3 4 7 7 11 14 16 15 15 15 14 14 12 13 15 16 18 20 20 20 19 19 18 18 17 17 16 16 15 16 16 16 17 17 17 17 17 16
3 2 5 5 5 6 5 4 5 8 6 3 2 6 9 15 16 14 12 11 12 14 12 12 12 11 13 14 18 19 20 20 19 18 19 17 14 14 14 16 17 19 19 20 20 19 18 18 17
5 4 9 8 7 6 6 6 7 8 7 5 6 8 13 15 16 18 17 16 16 16 14 12 13 12 11 13 13 12 14 14 15 14 15 14 13 13 14 15 19 21 22 22 22 21 19 18 14
5 7 9 11 10 5 3 4 5 11 7 11 17 19 19 16 16 16 16 17 17 15 14 13 12 10 9 7 7 8 10 10 13 13 14 12 11 11 11 9 11 16 19 16 16 17 15 13 11
5 9 8 7 6 4 4 2 3 8 12 18 21 22 19 17 16 15 15 13 12 12 12 11 10 10 8 5 6 7 6 6 7 12 14 10 5 6 6 4 6 6 7 6 8 6 9 11 12
5 7 8 8 8 6 6 5 3 6 8 14 14 15 17 16 13 11 9 9 9 9 8 9 8 7 6 5 5 7 7 7 9 11 13 13 7 7 5 3 3 3 4 4 4 5 6 7 7
7 10 12 10 10 7 6 8 4 4 9 13 13 13 13 10 7 5 6 8 9 7 5 5 3 2 1 1 4 6 6 5 6 7 11 13 8 5 5 3 2 2 3 4 4 5 5 5 5
7 9 13 10 9 7 6 9 8 6 11 14 13 10 5 3 7 7 8 10 11 9 8 7 5 3 2 2 4 5 2 3 4 5 9 10 8 5 4 3 2 2 2 2 2 2 2 3 3
7 7 8 13 8 10 3 9 14 4 13 12 10 7 5 8 9 9 10 10 10 10 10 8 7 4 2 4 5 3 1 2 3 3 5 7 8 7 4 3 2 1 1 1 0 0 0 1 2
5 5 10 14 9 7 5 7 9 4 12 9 8 8 9 9 10 9 10 10 10 10 10 9 7 6 4 3 5 3 0 2 2 3 4 6 7 8 4 3 2 2 2 1 1 1 1 1 3
7 7 7 8 8 2 2 1 2 5 9 10 9 9 10 10 9 9 10 10 8 7 5 6 3 1 3 2 2 2 2 1 2 3 5 7 7 7 5 4 3 3 3 1 0 0 1 1 2
8 4 5 6 7 7 7 7 10 11 12 11 10 11 12 11 9 9 9 8 7 7 5 2 3 2 2 1 2 2 2 2 3 4 5 6 7 7 5 4 4 4 3 2 1 1 1 2 1
3 4 5 6 8 8 9 12 13 17 15 14 14 13 11 9 9 9 7 7 7 5 3 3 2 2 2 3 3 3 2 2 3 3 4 5 6 6 5 6 5 4 3 2 1 1 1 1 1
4 2 3 4 6 8 7 8 10 12 17 18 17 13 10 9 8 7 7 7 7 7 5 4 2 1 1 3 2 2 1 1 1 2 3 4 5 6 5 6 6 5 5 4 3 3 3 2 1
4 5 4 5 5 4 5 1 3 8 14 15 13 12 10 8 7 6 7 8 8 7 6 6 4 3 2 2 1 0 1 1 3 2 3 4 4 5 6 6 7 6 5 5 4 4 4 3 2
3 2 4 4 2 2 3 3 2 4 8 9 9 9 8 6 5 5 6 7 7 7 7 6 7 7 6 5 4 3 3 2 2 2 2 3 3 4 5 6 7 7 6 6 6 5 4 4 4
1 6 8 7 5 2 3 3 3 3 2 3 4 6 5 4 4 4 5 6 6 6 6 6 6 6 6 7 7 7 6 6 5 5 4 3 3 3 3 4 5 6 6 7 7 7 6 5 5
6 7 6 7 6 3 1 5 2 3 5 5 4 4 5 4 3 3 4 5 5 5 5 5 5 4 5 6 6 6 6 6 6 5 5 5 4 4 4 3 3 4 5 7 7 7 7 7 6
2 7 5 3 4 4 2 2 3 4 3 2 3 3 3 3 3 3 4 5 5 5 5 4 3 2 2 3 4 4 4 3 3 5 5 5 4 5 5 5 5 4 4 5 6 6 7 6 7
1 0 5 5 1 1 1 1 1 2 3 4 3 2 3 4 4 4 4 5 5 6 5 5 4 3 2 1 1 2 3 3 4 5 4 4 4 5 6 7 6 6 6 5 4 5 7 7 7
3 1 6 4 1 3 2 3 4 7 8 6 5 4 3 3 3 4 4 5 6 7 6 7 6 6 5 5 4 4 4 5 5 5 6 6 6 5 6 7 7 7 7 6 5 5 6 7 7
5 4 4 2 3 3 2 4 4 9 8 7 6 5 4 4 3 4 5 5 5 6 6 7 7 7 7 8 7 7 7 7 6 6 7 7 6 6 7 7 7 7 8 7 6 7 7 7 7
2 0 3 2 3 1 1 5 3 5 4 4 3 2 2 3 4 5 5 4 3 4 5 7 8 8 9 9 9 9 9 8 8 8 9 8 8 8 7 7 7 8 8 7 7 8 8 7 7
Wind_Direction
165 153 144 149 114 23 282 269 89 60 55 59 75 90 96 86 153 168 144 147 145 152 157 156 155 154 154 154 153 152 152 150 148 146 144 141 140 140 141 142 143 143 143 142 143 143 143 143 143
163 157 145 148 92 358 293 315 75 82 125 112 79 76 77 67 85 113 125 147 147 150 154 155 155 155 155 156 156 157 157 156 155 153 151 150 148 148 148 149 150 151 152 152 152 153 153 154 155
181 178 143 96 308 229 290 326 42 95 122 105 92 66 78 108 116 125 142 143 142 147 152 156 155 156 158 159 161 161 161 161 160 160 159 158 157 157 157 157 158 159 160 162 163 164 164 166 169
160 131 72 66 261 250 284 321 312 83 52 63 100 73 74 120 126 134 139 144 144 148 153 158 158 159 161 162 164 165 166 166 166 166 166 166 166 166 166 167 168 169 171 173 174 175 176 180 184
114 103 65 312 265 250 324 320 327 56 58 79 103 95 68 66 121 134 145 150 149 150 155 160 160 162 164 166 168 170 170 171 171 172 173 174 175 176 177 178 180 182 184 186 188 189 191 194 199
85 84 95 259 260 246 202 208 5 48 87 86 97 105 95 129 133 146 152 155 155 154 157 163 165 167 169 171 173 175 175 176 177 178 180 181 184 186 188 190 192 195 198 200 202 203 204 207 210
146 133 214 242 269 263 195 159 132 137 135 137 123 97 117 146 148 153 155 155 156 157 161 165 169 172 174 176 179 180 182 183 184 186 187 189 192 196 199 202 205 208 210 212 214 215 216 217 218
156 119 274 268 268 260 202 162 155 155 206 133 124 133 160 176 157 154 154 154 156 161 167 169 170 172 175 180 185 187 189 190 192 193 195 197 200 204 209 212 216 219 220 221 223 224 225 225 225
136 85 255 248 249 254 209 181 165 142 141 146 131 151 161 160 152 150 151 154 161 169 175 174 173 173 175 180 191 192 195 198 199 201 203 204 209 213 217 222 224 227 229 229 228 228 230 231 232
128 187 240 238 245 254 215 194 161 147 143 150 131 131 147 156 158 163 165 171 176 178 181 181 179 177 176 187 192 196 200 204 205 206 208 208 210 216 223 230 234 236 236 235 233 231 231 233 234
194 216 255 267 261 254 234 208 170 148 177 182 163 164 164 168 170 171 174 177 180 177 180 182 181 177 179 193 187 196 205 207 212 212 213 212 215 222 231 232 244 242 240 238 238 235 230 228 226
272 272 273 276 299 312 276 230 177 185 199 186 173 167 168 174 176 177 179 172 165 167 178 172 173 176 184 198 197 197 204 205 211 216 214 209 213 220 223 224 229 228 227 225 229 227 228 230 230
282 291 307 305 325 319 313 295 253 223 184 170 170 168 174 179 180 177 161 148 150 160 164 159 164 169 182 198 217 207 210 209 210 210 212 207 207 213 209 213 219 221 217 217 226 230 233 235 235
286 304 305 304 312 310 311 307 323 251 156 164 176 186 186 184 167 126 117 123 118 102 90 93 120 120 112 231 253 225 210 209 203 205 205 200 197 192 191 204 212 222 214 211 214 224 226 234 236
317 332 322 305 300 290 334 321 285 225 163 174 187 191 172 104 81 91 103 103 103 96 79 66 52 48 26 326 276 245 204 185 193 197 191 183 179 178 176 176 184 214 208 207 224 242 232 243 245
343 347 307 287 280 275 256 266 273 200 160 175 181 169 113 78 80 84 94 96 94 84 73 58 21 344 4 303 281 274 193 161 147 153 165 164 163 164 158 158 175 194 137 87 184 279 307 295 284
346 291 278 288 275 253 204 239 275 167 154 148 144 128 106 90 76 78 84 86 86 90 83 65 32 0 339 287 280 292 253 131 131 143 155 163 161 157 144 152 162 135 97 79 91 101 160 285 299
258 268 285 296 312 8 121 221 357 72 111 116 110 104 95 86 77 79 80 82 85 85 96 95 92 22 319 311 304 312 351 36 155 174 176 167 164 156 142 145 144 124 106 86 64 246 240 236 267
242 275 311 314 337 39 52 49 36 52 63 72 73 76 80 78 75 74 75 83 86 81 86 104 141 162 200 288 309 266 236 221 203 203 186 172 167 159 153 150 147 137 137 157 233 218 284 289 309
309 354 340 330 352 34 49 53 51 49 54 59 67 70 74 74 67 65 65 76 85 89 86 90 143 166 215 225 231 240 213 226 221 218 211 187 173 167 169 166 167 164 155 149 179 173 201 279 7
338 336 338 341 3 26 62 40 48 50 56 59 55 53 55 66 67 66 69 72 74 65 55 56 42 47 254 248 256 311 352 340 317 254 228 210 187 181 175 180 178 182 173 181 201 197 181 216 271
311 315 6 8 25 352 46 41 22 58 58 56 58 55 47 46 56 65 70 69 70 73 67 54 56 54 7 331 334 39 237 246 261 257 252 239 214 197 194 192 194 193 189 191 204 191 187 183 230
272 334 19 359 22 33 15 109 338 38 54 50 59 66 61 53 59 64 69 70 69 67 64 56 47 34 16 11 8 13 2 321 308 314 292 266 257 238 226 214 204 202 200 200 201 199 208 202 205
333 29 17 35 56 5 311 116 342 13 94 88 80 92 94 83 83 89 88 86 81 76 69 61 53 38 25 25 20 18 10 357 357 352 340 312 294 281 270 238 222 213 207 207 206 206 213 218 221
42 62 18 355 359 278 358 103 212 177 157 144 155 147 134 143 145 132 117 110 110 104 96 83 68 42 22 27 24 14 8 1 359 348 337 330 319 312 304 296 255 230 219 215 209 206 215 217 221
307 121 141 229 250 276 6 161 221 196 175 167 169 162 154 175 176 170 164 151 147 147 143 132 120 100 30 25 10 5 1 354 340 334 332 330 322 313 320 319 305 282 256 238 220 218 221 219 222
18 269 178 159 296 22 259 211 281 213 212 218 209 175 168 182 170 175 180 173 174 174 172 168 165 177 209 228 266 292 313 318 314 315 318 314 315 318 334 329 319 308 295 279 255 238 235 227 226
118 121 59 61 25 319 292 218 214 205 221 221 213 201 198 192 191 194 198 197 190 183 181 179 182 196 215 224 232 238 251 261 272 286 295 297 300 308 313 316 316 311 304 295 282 267 253 239 236
15 31 75 94 159 163 286 273 234 200 204 204 211 208 215 231 239 245 245 232 213 196 192 197 204 212 223 228 231 236 244 249 254 260 266 271 277 286 291 294 300 302 300 294 286 273 263 251 248
49 355 133 145 302 125 154 277 270 206 206 191 199 246 285 296 291 288 290 287 269 242 233 231 231 231 233 232 232 237 241 242 245 250 255 256 262 267 270 276 282 286 291 292 287 283 273 255 250
Height
1510 1511 1511 1513 1515 1518 1513 1493 1481 1478 1479 1480 1479 1481 1485 1489 1494 1501 1498 1499 1503 1506 1510 1514 1517 1519 1521 1522 1523 1525 1526 1528 1529 1530 1531 1533 1534 1535 1536 1537 1538 1539 1540 1541 1542 1543 1544 1545 1546
1510 1510 1512 1512 1516 1524 1511 1490 1484 1481 1481 1480 1481 1484 1486 1490 1490 1492 1495 1500 1503 1506 1509 1513 1517 1519 1520 1522 1523 1525 1526 1528 1529 1530 1532 1533 1534 1535 1536 1537 1538 1539 1540 1541 1542 1543 1544 1545 1546
1510 1510 1511 1512 1516 1519 1508 1492 1486 1483 1481 1479 1483 1486 1488 1491 1492 1493 1496 1500 1504 1507 1510 1513 1516 1518 1520 1522 1523 1524 1526 1527 1529 1530 1532 1533 1534 1535 1536 1537 1538 1539 1540 1541 1542 1542 1543 1544 1545
1509 1510 1511 1515 1514 1503 1497 1491 1487 1485 1484 1483 1484 1489 1492 1494 1494 1496 1499 1502 1504 1507 1510 1513 1516 1518 1520 1522 1523 1524 1526 1527 1529 1530 1531 1533 1534 1535 1536 1537 1538 1539 1539 1540 1541 1542 1542 1543 1544
1507 1508 1513 1518 1510 1497 1491 1489 1487 1485 1485 1486 1484 1489 1493 1495 1496 1498 1500 1503 1505 1507 1510 1513 1516 1518 1520 1522 1523 1524 1526 1527 1529 1530 1531 1533 1534 1535 1536 1537 1537 1538 1539 1539 1540 1540 1541 1542 1543
1506 1507 1519 1522 1508 1494 1490 1488 1489 1488 1488 1489 1488 1490 1495 1496 1497 1499 1502 1504 1506 1508 1510 1513 1515 1518 1520 1522 1523 1525 1526 1527 1529 1530 1531 1532 1533 1534 1535 1536 1537 1537 1538 1538 1538 1539 1539 1540 1541
1505 1508 1515 1511 1505 1496 1487 1486 1488 1490 1490 1490 1490 1492 1497 1498 1498 1501 1503 1505 1507 1508 1510 1512 1514 1517 1519 1521 1523 1524 1526 1527 1528 1529 1530 1531 1532 1533 1534 1535 1535 1536 1536 1537 1537 1537 1537 1538 1538
1500 1505 1509 1508 1502 1495 1485 1484 1487 1490 1491 1490 1490 1491 1495 1497 1499 1501 1504 1506 1507 1508 1509 1511 1513 1516 1518 1520 1522 1523 1525 1526 1527 1528 1528 1529 1530 1531 1532 1533 1533 1534 1534 1535 1535 1535 1536 1536 1536
1499 1508 1513 1505 1498 1490 1483 1483 1484 1486 1488 1488 1488 1488 1489 1494 1498 1500 1502 1504 1506 1507 1508 1510 1512 1515 1517 1519 1521 1522 1523 1524 1525 1526 1527 1528 1528 1529 1529 1530 1531 1531 1532 1532 1532 1532 1533 1533 1533
1495 1508 1501 1490 1486 1483 1480 1480 1481 1485 1487 1486 1486 1486 1487 1491 1494 1495 1497 1499 1501 1503 1506 1509 1511 1513 1516 1518 1520 1521 1522 1523 1524 1525 1525 1526 1526 1527 1527 1528 1528 1528 1529 1529 1529 1529 1529 1530 1530
1492 1495 1487 1483 1481 1479 1477 1477 1478 1481 1486 1481 1479 1480 1482 1485 1488 1490 1492 1493 1497 1502 1505 1507 1511 1513 1515 1517 1519 1520 1520 1521 1522 1523 1524 1524 1525 1525 1525 1525 1525 1525 1525 1525 1526 1526 1526 1526 1527
1490 1486 1483 1480 1478 1476 1475 1474 1475 1475 1474 1474 1474 1475 1478 1481 1483 1486 1488 1491 1495 1500 1503 1507 1511 1513 1515 1517 1518 1518 1518 1519 1519 1521 1522 1522 1522 1522 1522 1522 1522 1522 1522 1522 1522 1522 1522 1523 1523
1487 1483 1479 1477 1475 1474 1473 1471 1471 1470 1470 1473 1475 1475 1476 1478 1481 1483 1487 1493 1496 1498 1502 1505 1509 1512 1514 1516 1517 1517 1516 1517 1518 1518 1519 1519 1519 1520 1520 1520 1520 1519 1519 1519 1519 1519 1519 1519 1519
1486 1482 1478 1474 1472 1471 1472 1470 1470 1469 1470 1472 1474 1474 1475 1478 1482 1485 1488 1492 1495 1499 1503 1506 1509 1511 1512 1514 1515 1514 1513 1514 1515 1516 1516 1517 1517 1518 1518 1517 1517 1516 1516 1515 1515 1515 1515 1515 1515
1486 1484 1479 1472 1470 1469 1471 1474 1469 1467 1469 1471 1473 1475 1478 1481 1485 1486 1488 1490 1492 1495 1499 1503 1506 1507 1507 1507 1507 1507 1508 1510 1512 1513 1514 1514 1515 1516 1516 1515 1514 1513 1512 1512 1512 1512 1511 1511 1510
1487 1491 1493 1476 1470 1467 1476 1484 1467 1466 1468 1470 1473 1477 1481 1484 1485 1487 1489 1490 1492 1495 1497 1501 1503 1502 1501 1503 1501 1502 1504 1506 1508 1509 1511 1512 1512 1514 1514 1512 1511 1510 1509 1509 1508 1508 1508 1507 1506
1498 1503 1497 1481 1466 1465 1472 1479 1467 1466 1468 1472 1475 1479 1482 1484 1486 1488 1489 1490 1492 1493 1495 1497 1497 1496 1499 1501 1499 1499 1500 1502 1504 1506 1507 1510 1511 1512 1511 1510 1509 1507 1506 1506 1505 1505 1505 1504 1503
1506 1501 1494 1486 1469 1465 1472 1475 1470 1471 1472 1476 1479 1482 1484 1486 1488 1489 1490 1491 1492 1493 1495 1495 1494 1493 1495 1493 1495 1497 1497 1500 1502 1505 1506 1508 1509 1510 1509 1508 1507 1505 1504 1503 1503 1502 1501 1500 1499
1489 1491 1491 1481 1469 1471 1476 1478 1478 1479 1481 1484 1487 1488 1489 1489 1491 1490 1491 1492 1492 1491 1492 1492 1491 1492 1492 1492 1494 1496 1498 1499 1501 1503 1505 1505 1507 1508 1507 1506 1505 1503 1502 1500 1500 1499 1498 1497 1496
1483 1488 1488 1480 1471 1474 1482 1488 1487 1487 1489 1491 1493 1494 1495 1494 1493 1492 1492 1492 1492 1490 1490 1489 1489 1490 1492 1494 1494 1495 1497 1498 1499 1501 1502 1503 1504 1504 1505 1504 1503 1501 1500 1498 1497 1497 1495 1494 1493
1482 1485 1485 1483 1478 1478 1484 1497 1496 1496 1495 1497 1499 1500 1500 1499 1497 1496 1494 1492 1491 1491 1491 1491 1491 1491 1492 1493 1494 1495 1497 1497 1497 1498 1499 1499 1500 1501 1501 1501 1500 1499 1498 1496 1495 1494 1493 1491 1490
1488 1476 1476 1479 1489 1500 1494 1512 1505 1503 1502 1502 1503 1504 1505 1504 1501 1499 1496 1494 1492 1492 1493 1494 1493 1493 1493 1494 1495 1496 1495 1496 1496 1496 1496 1496 1496 1497 1497 1497 1496 1495 1494 1493 1492 1491 1490 1488 1487
1479 1473 1476 1480 1489 1500 1502 1511 1513 1507 1509 1509 1507 1506 1506 1505 1503 1501 1499 1497 1495 1495 1495 1495 1495 1495 1495 1494 1494 1494 1494 1494 1494 1493 1492 1492 1492 1492 1492 1492 1491 1490 1490 1489 1489 1488 1487 1486 1484
1473 1477 1483 1492 1501 1515 1509 1515 1521 1514 1512 1509 1507 1505 1504 1505 1504 1503 1500 1499 1498 1498 1498 1498 1497 1497 1495 1494 1493 1492 1491 1491 1490 1489 1488 1487 1487 1487 1486 1485 1485 1484 1484 1484 1484 1483 1483 1482 1480
1477 1498 1518 1520 1527 1525 1512 1517 1520 1510 1506 1504 1504 1502 1501 1502 1503 1503 1501 1500 1499 1499 1499 1499 1498 1497 1495 1494 1492 1490 1489 1488 1486 1485 1483 1482 1481 1481 1480 1479 1478 1478 1478 1478 1478 1478 1478 1477 1476
1483 1496 1521 1530 1530 1524 1516 1519 1514 1508 1506 1504 1503 1503 1502 1502 1502 1502 1501 1500 1499 1498 1498 1497 1497 1496 1494 1492 1491 1489 1487 1485 1483 1481 1479 1477 1476 1475 1473 1473 1472 1472 1472 1472 1472 1472 1472 1472 1471
1487 1493 1495 1511 1513 1523 1523 1517 1513 1508 1507 1505 1504 1503 1502 1502 1501 1500 1500 1498 1497 1496 1495 1494 1494 1493 1491 1490 1488 1486 1484 1482 1479 1477 1475 1473 1471 1469 1468 1467 1466 1466 1465 1465 1465 1465 1465 1466 1466
1484 1488 1501 1511 1522 1528 1521 1518 1518 1510 1507 1504 1503 1503 1502 1501 1500 1499 1498 1496 1494 1493 1491 1490 1489 1489 1487 1485 1484 1482 1480 1477 1475 1473 1470 1468 1466 1464 1462 1461 1460 1460 1459 1458 1458 1458 1458 1459 1459
1489 1492 1500 1511 1516 1526 1528 1523 1504 1504 1502 1502 1502 1501 1501 1500 1498 1497 1495 1493 1490 1488 1487 1486 1485 1483 1482 1480 1478 1476 1474 1472 1470 1468 1465 1463 1460 1459 1457 1456 1454 1453 1452 1452 1451 1451 1451 1452 1452
1488 1492 1500 1514 1516 1518 1525 1523 1500 1501 1501 1501 1502 1502 1501 1499 1497 1494 1491 1489 1487 1485 1484 1482 1480 1478 1475 1473 1471 1469 1467 1465 1463 1461 1459 1457 1455 1454 1452 1450 1448 1447 1446 1445 1444 1444 1444 1445 1445